PulseSat

PulseSat

GSAT0206 (GALILEO 10)

Last updated on April 20, 2019, 3:01 a.m. UTC

1 40890U 15045B   19108.70396159 -.00000030  00000-0  00000+0 0  9998
2 40890  56.4932 293.7952 0002614  46.1803 313.8246  1.70475062 22434
UTC
Height (km)
Latitude
Longitude
Inclination
Orbital Period

Next 30 passes for location: Hong Kong

Rise time Rise Azimuth (degrees) Set time Set Azimuth (degrees) Duration Max altitude (degrees)

No matching passes for this satellites

PulseSat

PulseSat is the new satellites software and hardware trackering solution by Pulsely.
Satellite Two Line Element Set source: US Air Force Space Command

Download PulseSat for iOS
© 2017 Pulsely Limited